SJV912 WIII-WIBB

Flight info

Callsign SJV912
Flight time 1h 31m
Altitude 34000
Route GOMEL T10 OVSET
Aircraft A320/M-SDE3FGHIRWY/LB1

Departure

Time 2026-05-06 05:49
Airport Soekarno-Hatta International Airport (WIII)

Arrival

Time 2026-05-06 07:20
Airport Sultan Syarif Kasim II International Airport / Roesmin Nurjadin AFB (WIBB)
Time Latitude Longitude Altitude Speed Heading
2026-05-06 05:27 -6.12089 106.65077 38 ft 0 kts 122°
2026-05-06 05:41 -6.12083 106.65068 58 ft 2 kts 117°
2026-05-06 05:41 -6.12075 106.65053 60 ft 2 kts 115°
2026-05-06 05:42 -6.12069 106.65038 35 ft 2 kts 107°
2026-05-06 05:42 -6.12065 106.65022 38 ft 2 kts 87°
2026-05-06 05:42 -6.12069 106.65006 38 ft 2 kts 38°
2026-05-06 05:42 -6.12080 106.64999 35 ft 1 kts 10°
2026-05-06 05:43 -6.12083 106.64999 35 ft 0 kts
2026-05-06 05:43 -6.12077 106.65000 35 ft 0 kts
2026-05-06 05:44 -6.12066 106.65002 38 ft 3 kts 11°
2026-05-06 05:44 -6.12040 106.65006 38 ft 5 kts
2026-05-06 05:44 -6.11998 106.65013 35 ft 7 kts
2026-05-06 05:45 -6.11941 106.65013 38 ft 10 kts 341°
2026-05-06 05:45 -6.11873 106.64985 38 ft 11 kts 320°
2026-05-06 05:45 -6.11877 106.64908 36 ft 13 kts 247°
2026-05-06 05:45 -6.11914 106.64819 38 ft 15 kts 247°
2026-05-06 05:46 -6.11955 106.64718 38 ft 16 kts 248°
2026-05-06 05:46 -6.12000 106.64605 38 ft 18 kts 249°
2026-05-06 05:46 -6.12049 106.64479 38 ft 20 kts 249°
2026-05-06 05:46 -6.12104 106.64342 38 ft 22 kts 248°
2026-05-06 05:47 -6.12165 106.64191 37 ft 24 kts 248°
2026-05-06 05:47 -6.12230 106.64028 38 ft 26 kts 248°
2026-05-06 05:47 -6.12247 106.63902 39 ft 15 kts 309°
2026-05-06 05:47 -6.12143 106.63890 39 ft 17 kts 16°
2026-05-06 05:48 -6.12057 106.63972 37 ft 19 kts 70°
2026-05-06 05:48 -6.12001 106.64109 38 ft 32 kts 68°
2026-05-06 05:48 -6.11830 106.64539 39 ft 97 kts 68°
2026-05-06 05:48 -6.11516 106.65326 37 ft 144 kts 68°
2026-05-06 05:49 -6.11106 106.66365 270 ft 165 kts 68°
2026-05-06 05:49 -6.10682 106.67447 831 ft 170 kts 66°
2026-05-06 05:49 -6.10147 106.68488 1471 ft 167 kts 47°
2026-05-06 05:49 -6.09211 106.69135 2072 ft 166 kts 27°
2026-05-06 05:50 -6.08135 106.69702 2336 ft 185 kts 32°
2026-05-06 05:50 -6.06953 106.70389 2562 ft 207 kts 31°
2026-05-06 05:50 -6.05499 106.70840 2779 ft 236 kts
2026-05-06 05:50 -6.03874 106.70306 3118 ft 264 kts 325°
2026-05-06 05:51 -6.02460 106.69054 3770 ft 275 kts 316°
2026-05-06 05:51 -6.01109 106.67675 4632 ft 279 kts 314°
2026-05-06 05:51 -5.99761 106.66242 5412 ft 284 kts 314°
2026-05-06 05:51 -5.98398 106.64783 6214 ft 288 kts 314°
2026-05-06 05:52 -5.97010 106.63311 6976 ft 292 kts 314°
2026-05-06 05:52 -5.95596 106.61829 7715 ft 296 kts 315°
2026-05-06 05:52 -5.94156 106.60336 8455 ft 299 kts 315°
2026-05-06 05:52 -5.92695 106.58831 9198 ft 302 kts 316°
2026-05-06 05:53 -5.91215 106.57314 9920 ft 306 kts 316°
2026-05-06 05:53 -5.89694 106.55761 10293 ft 322 kts 316°
2026-05-06 05:53 -5.88049 106.54083 10424 ft 345 kts 316°
2026-05-06 05:53 -5.86330 106.52329 10744 ft 357 kts 316°
2026-05-06 05:54 -5.84573 106.50532 11280 ft 362 kts 316°
2026-05-06 05:54 -5.82824 106.48739 11850 ft 366 kts 316°
2026-05-06 05:54 -5.81015 106.46885 12434 ft 369 kts 315°
2026-05-06 05:54 -5.79210 106.45034 13001 ft 372 kts 315°
2026-05-06 05:55 -5.77390 106.43167 13572 ft 376 kts 315°
2026-05-06 05:55 -5.75553 106.41286 14073 ft 379 kts 315°
2026-05-06 05:55 -5.73700 106.39394 14590 ft 381 kts 315°
2026-05-06 05:55 -5.71840 106.37488 15116 ft 383 kts 315°
2026-05-06 05:56 -5.69972 106.35572 15647 ft 385 kts 315°
2026-05-06 05:56 -5.68094 106.33646 16168 ft 387 kts 316°
2026-05-06 05:56 -5.66205 106.31713 16694 ft 389 kts 316°
2026-05-06 05:56 -5.64307 106.29771 17201 ft 391 kts 316°
2026-05-06 05:57 -5.62399 106.27817 17713 ft 393 kts 316°
2026-05-06 05:57 -5.60481 106.25854 18214 ft 395 kts 316°
2026-05-06 05:57 -5.58553 106.23879 18633 ft 397 kts 316°
2026-05-06 05:57 -5.56613 106.21893 19040 ft 400 kts 316°
2026-05-06 05:58 -5.54662 106.19899 19435 ft 403 kts 316°
2026-05-06 05:58 -5.52693 106.17886 19827 ft 406 kts 316°
2026-05-06 05:58 -5.50709 106.15858 20226 ft 408 kts 316°
2026-05-06 05:58 -5.48711 106.13817 20610 ft 411 kts 316°
2026-05-06 05:59 -5.46695 106.11756 20989 ft 414 kts 316°
2026-05-06 05:59 -5.44674 106.09689 21372 ft 417 kts 316°
2026-05-06 05:59 -5.42635 106.07604 21746 ft 420 kts 316°
2026-05-06 05:59 -5.40584 106.05506 22119 ft 422 kts 316°
2026-05-06 06:00 -5.39194 106.04083 22350 ft 424 kts 316°
2026-05-06 06:00 -5.36444 106.01273 22779 ft 427 kts 316°
2026-05-06 06:00 -5.34360 105.99143 22852 ft 428 kts 316°
2026-05-06 06:00 -5.32956 105.97707 22855 ft 427 kts 316°
2026-05-06 06:01 -5.30872 105.95578 22855 ft 427 kts 316°
2026-05-06 06:01 -5.28786 105.93447 22965 ft 429 kts 316°
2026-05-06 06:01 -5.26685 105.91308 23360 ft 431 kts 317°
2026-05-06 06:01 -5.24398 105.89368 23650 ft 431 kts 324°
2026-05-06 06:02 -5.21999 105.87550 23939 ft 433 kts 324°
2026-05-06 06:02 -5.19585 105.85729 24230 ft 435 kts 325°
2026-05-06 06:02 -5.17158 105.83905 24522 ft 437 kts 325°
2026-05-06 06:02 -5.14723 105.82081 24802 ft 439 kts 325°
2026-05-06 06:03 -5.12268 105.80239 25091 ft 441 kts 324°
2026-05-06 06:03 -5.09807 105.78392 25374 ft 443 kts 324°
2026-05-06 06:03 -5.07342 105.76541 25652 ft 445 kts 324°
2026-05-06 06:03 -5.04861 105.74677 25933 ft 446 kts 324°
2026-05-06 06:04 -5.02370 105.72803 26207 ft 448 kts 324°
2026-05-06 06:04 -4.99868 105.70922 26478 ft 450 kts 324°
2026-05-06 06:04 -4.97355 105.69034 26745 ft 452 kts 324°
2026-05-06 06:04 -4.94828 105.67140 27013 ft 454 kts 324°
2026-05-06 06:05 -4.92292 105.65238 27281 ft 456 kts 324°
2026-05-06 06:05 -4.89746 105.63328 27550 ft 458 kts 324°
2026-05-06 06:05 -4.87194 105.61410 27863 ft 459 kts 324°
2026-05-06 06:05 -4.84606 105.59466 28152 ft 461 kts 324°
2026-05-06 06:06 -4.82065 105.57559 28424 ft 463 kts 324°
2026-05-06 06:06 -4.79483 105.55623 28706 ft 464 kts 324°
2026-05-06 06:06 -4.76856 105.53653 28989 ft 466 kts 324°
2026-05-06 06:06 -4.74253 105.51702 29266 ft 468 kts 324°
2026-05-06 06:07 -4.71642 105.49744 29556 ft 469 kts 324°
2026-05-06 06:07 -4.69037 105.47789 29954 ft 468 kts 324°
2026-05-06 06:07 -4.66434 105.45835 30320 ft 467 kts 324°
2026-05-06 06:07 -4.63839 105.43889 30686 ft 465 kts 324°
2026-05-06 06:08 -4.61253 105.41949 31062 ft 464 kts 324°
2026-05-06 06:08 -4.58675 105.40014 31439 ft 462 kts 324°
2026-05-06 06:08 -4.56106 105.38085 31813 ft 461 kts 324°
2026-05-06 06:08 -4.53542 105.36166 32207 ft 459 kts 324°
2026-05-06 06:09 -4.50984 105.34255 32612 ft 458 kts 324°
2026-05-06 06:09 -4.48435 105.32348 32986 ft 457 kts 324°
2026-05-06 06:09 -4.45895 105.30444 33404 ft 455 kts 323°
2026-05-06 06:09 -4.43363 105.28549 33746 ft 454 kts 324°
2026-05-06 06:10 -4.38280 105.24746 33844 ft 459 kts 323°
2026-05-06 06:10 -4.33147 105.20904 33844 ft 461 kts 323°
2026-05-06 06:11 -4.28012 105.17055 33844 ft 461 kts 323°
2026-05-06 06:11 -4.22876 105.13210 33843 ft 461 kts 323°
2026-05-06 06:12 -4.17741 105.09356 33844 ft 461 kts 323°
2026-05-06 06:12 -4.12601 105.05507 33847 ft 461 kts 323°
2026-05-06 06:13 -4.07426 105.01641 33848 ft 461 kts 323°
2026-05-06 06:13 -4.02282 104.97793 33849 ft 462 kts 324°
2026-05-06 06:14 -3.97134 104.93939 33846 ft 462 kts 324°
2026-05-06 06:14 -3.91980 104.90082 33835 ft 463 kts 324°
2026-05-06 06:15 -3.86817 104.86229 33837 ft 463 kts 324°
2026-05-06 06:15 -3.81651 104.82373 33837 ft 463 kts 324°
2026-05-06 06:16 -3.76489 104.78508 33838 ft 463 kts 324°
2026-05-06 06:16 -3.71329 104.74639 33838 ft 463 kts 324°
2026-05-06 06:17 -3.66168 104.70783 33833 ft 464 kts 323°
2026-05-06 06:17 -3.60992 104.66922 33825 ft 464 kts 324°
2026-05-06 06:18 -3.55813 104.63050 33818 ft 465 kts 323°
2026-05-06 06:18 -3.50631 104.59173 33820 ft 465 kts 323°
2026-05-06 06:19 -3.45446 104.55291 33824 ft 465 kts 324°
2026-05-06 06:19 -3.40254 104.51412 33826 ft 466 kts 324°
2026-05-06 06:20 -3.35058 104.47541 33833 ft 466 kts 324°
2026-05-06 06:20 -3.29859 104.43664 33835 ft 466 kts 324°
2026-05-06 06:21 -3.24627 104.39756 33830 ft 466 kts 324°
2026-05-06 06:21 -3.19435 104.35877 33834 ft 466 kts 324°
2026-05-06 06:22 -3.14234 104.31996 33837 ft 466 kts 324°
2026-05-06 06:22 -3.09034 104.28115 33838 ft 466 kts 324°
2026-05-06 06:23 -3.03831 104.24239 33835 ft 466 kts 324°
2026-05-06 06:23 -2.98637 104.20367 33829 ft 466 kts 323°
2026-05-06 06:24 -2.93442 104.16493 33827 ft 466 kts 323°
2026-05-06 06:24 -2.88254 104.12612 33824 ft 466 kts 323°
2026-05-06 06:25 -2.83062 104.08732 33821 ft 466 kts 323°
2026-05-06 06:26 -2.75263 104.02923 33827 ft 466 kts 323°
2026-05-06 06:26 -2.70064 103.99052 33823 ft 466 kts 323°
2026-05-06 06:27 -2.64866 103.95174 33825 ft 466 kts 323°
2026-05-06 06:27 -2.59632 103.91274 33831 ft 466 kts 323°
2026-05-06 06:28 -2.54436 103.87403 33826 ft 466 kts 324°
2026-05-06 06:28 -2.49229 103.83515 33822 ft 467 kts 323°
2026-05-06 06:29 -2.44028 103.79634 33821 ft 467 kts 324°
2026-05-06 06:29 -2.38814 103.75753 33823 ft 467 kts 324°
2026-05-06 06:30 -2.33598 103.71869 33829 ft 467 kts 324°
2026-05-06 06:30 -2.28384 103.67985 33831 ft 467 kts 324°
2026-05-06 06:31 -2.23168 103.64099 33830 ft 468 kts 324°
2026-05-06 06:31 -2.17949 103.60215 33843 ft 467 kts 324°
2026-05-06 06:32 -2.12738 103.56341 33847 ft 467 kts 324°
2026-05-06 06:32 -2.07528 103.52461 33844 ft 467 kts 324°
2026-05-06 06:33 -2.03167 103.49203 33847 ft 467 kts 323°
2026-05-06 06:33 -1.97959 103.45320 33834 ft 467 kts 324°
2026-05-06 06:34 -1.92734 103.41441 33825 ft 468 kts 324°
2026-05-06 06:34 -1.87511 103.37549 33828 ft 469 kts 323°
2026-05-06 06:35 -1.82284 103.33647 33844 ft 469 kts 323°
2026-05-06 06:35 -1.77061 103.29754 33848 ft 468 kts 323°
2026-05-06 06:36 -1.71843 103.25870 33848 ft 467 kts 323°
2026-05-06 06:36 -1.66626 103.21997 33847 ft 467 kts 323°
2026-05-06 06:37 -1.61412 103.18127 33848 ft 467 kts 323°
2026-05-06 06:37 -1.56203 103.14249 33848 ft 467 kts 323°
2026-05-06 06:38 -1.50958 103.10339 33837 ft 468 kts 323°
2026-05-06 06:38 -1.45742 103.06451 33847 ft 468 kts 323°
2026-05-06 06:39 -1.40525 103.02571 33861 ft 467 kts 323°
2026-05-06 06:39 -1.35324 102.98699 33860 ft 466 kts 323°
2026-05-06 06:40 -1.30132 102.94836 33863 ft 465 kts 323°
2026-05-06 06:40 -1.24945 102.90978 33860 ft 465 kts 323°
2026-05-06 06:41 -1.19758 102.87127 33861 ft 464 kts 323°
2026-05-06 06:41 -1.14581 102.83282 33855 ft 464 kts 323°
2026-05-06 06:42 -1.09400 102.79427 33848 ft 464 kts 323°
2026-05-06 06:42 -1.04222 102.75570 33768 ft 464 kts 323°
2026-05-06 06:42 -1.01625 102.73638 32658 ft 472 kts 323°
2026-05-06 06:43 -0.98913 102.71621 31427 ft 485 kts 324°
2026-05-06 06:43 -0.96208 102.69610 30875 ft 482 kts 324°
2026-05-06 06:43 -0.93526 102.67614 30275 ft 479 kts 324°
2026-05-06 06:43 -0.90857 102.65627 29620 ft 477 kts 324°
2026-05-06 06:44 -0.88203 102.63654 28988 ft 473 kts 324°
2026-05-06 06:44 -0.85578 102.61700 28384 ft 468 kts 324°
2026-05-06 06:44 -0.82977 102.59764 27780 ft 464 kts 324°
2026-05-06 06:44 -0.80399 102.57846 27188 ft 460 kts 324°
2026-05-06 06:45 -0.77842 102.55947 26604 ft 456 kts 324°
2026-05-06 06:45 -0.75306 102.54063 26020 ft 453 kts 324°
2026-05-06 06:45 -0.72789 102.52192 25444 ft 449 kts 324°
2026-05-06 06:45 -0.70294 102.50332 24901 ft 446 kts 324°
2026-05-06 06:46 -0.67817 102.48486 24355 ft 442 kts 325°
2026-05-06 06:46 -0.65359 102.46658 23828 ft 439 kts 325°
2026-05-06 06:46 -0.62924 102.44847 23314 ft 435 kts 325°
2026-05-06 06:46 -0.60507 102.43046 22771 ft 431 kts 325°
2026-05-06 06:47 -0.58117 102.41269 22282 ft 426 kts 325°
2026-05-06 06:47 -0.55780 102.39474 21786 ft 422 kts 320°
2026-05-06 06:47 -0.53664 102.37454 21327 ft 419 kts 317°
2026-05-06 06:47 -0.51587 102.35436 20879 ft 414 kts 317°
2026-05-06 06:48 -0.49530 102.33439 20412 ft 410 kts 317°
2026-05-06 06:48 -0.47492 102.31463 19971 ft 406 kts 317°
2026-05-06 06:48 -0.45476 102.29506 19528 ft 402 kts 317°
2026-05-06 06:48 -0.43477 102.27569 19092 ft 398 kts 317°
2026-05-06 06:49 -0.41497 102.25651 18677 ft 394 kts 317°
2026-05-06 06:49 -0.39535 102.23752 18230 ft 391 kts 317°
2026-05-06 06:49 -0.37594 102.21872 17765 ft 387 kts 317°
2026-05-06 06:49 -0.35675 102.20010 17342 ft 383 kts 317°
2026-05-06 06:50 -0.33751 102.18138 16919 ft 379 kts 317°
2026-05-06 06:50 -0.31871 102.16309 16501 ft 377 kts 317°
2026-05-06 06:50 -0.30000 102.14491 16092 ft 374 kts 317°
2026-05-06 06:50 -0.28141 102.12689 15689 ft 371 kts 317°
2026-05-06 06:51 -0.26293 102.10900 15301 ft 369 kts 317°
2026-05-06 06:51 -0.24456 102.09123 14917 ft 366 kts 317°
2026-05-06 06:51 -0.22633 102.07358 14531 ft 364 kts 316°
2026-05-06 06:51 -0.20823 102.05605 14148 ft 361 kts 316°
2026-05-06 06:52 -0.19022 102.03864 13766 ft 359 kts 316°
2026-05-06 06:52 -0.17233 102.02133 13374 ft 357 kts 316°
2026-05-06 06:52 -0.15455 102.00412 12988 ft 355 kts 316°
2026-05-06 06:52 -0.13689 101.98702 12617 ft 353 kts 316°
2026-05-06 06:53 -0.11935 101.97006 12250 ft 351 kts 316°
2026-05-06 06:53 -0.10188 101.95318 11955 ft 348 kts 316°
2026-05-06 06:53 -0.08441 101.93629 11441 ft 353 kts 316°
2026-05-06 06:53 -0.06660 101.91904 10637 ft 357 kts 316°
2026-05-06 06:54 -0.04908 101.90206 10202 ft 340 kts 316°
2026-05-06 06:54 -0.03308 101.88657 10054 ft 318 kts 316°
2026-05-06 06:54 -0.01759 101.87159 9793 ft 302 kts 316°
2026-05-06 06:54 -0.00254 101.85703 9685 ft 302 kts 315°
2026-05-06 06:55 0.01256 101.84238 9552 ft 301 kts 316°
2026-05-06 06:55 0.02753 101.82784 9311 ft 300 kts 316°
2026-05-06 06:55 0.04243 101.81339 9007 ft 297 kts 316°
2026-05-06 06:55 0.05725 101.79906 8692 ft 296 kts 315°
2026-05-06 06:56 0.07199 101.78478 8385 ft 294 kts 315°
2026-05-06 06:56 0.08604 101.77007 8076 ft 292 kts 306°
2026-05-06 06:56 0.09624 101.75262 7791 ft 290 kts 292°
2026-05-06 06:56 0.10397 101.73412 7515 ft 289 kts 291°
2026-05-06 06:57 0.11174 101.71570 7251 ft 287 kts 292°
2026-05-06 06:57 0.11950 101.69741 6978 ft 285 kts 292°
2026-05-06 06:57 0.12733 101.67899 6703 ft 283 kts 292°
2026-05-06 06:57 0.13493 101.66117 6431 ft 281 kts 292°
2026-05-06 06:58 0.14267 101.64303 6165 ft 279 kts 292°
2026-05-06 06:58 0.15025 101.62522 5890 ft 278 kts 292°
2026-05-06 06:58 0.15779 101.60748 5632 ft 277 kts 292°
2026-05-06 06:58 0.16530 101.58979 5368 ft 276 kts 291°
2026-05-06 06:59 0.17276 101.57218 5108 ft 275 kts 291°
2026-05-06 06:59 0.18018 101.55466 4846 ft 274 kts 292°
2026-05-06 06:59 0.18753 101.53715 4589 ft 272 kts 289°
2026-05-06 06:59 0.19185 101.51888 4315 ft 270 kts 274°
2026-05-06 07:00 0.19280 101.50022 4029 ft 268 kts 271°
2026-05-06 07:00 0.19368 101.48157 3749 ft 268 kts 272°
2026-05-06 07:00 0.19461 101.46303 3464 ft 267 kts 273°
2026-05-06 07:00 0.19948 101.44543 3318 ft 261 kts 301°
2026-05-06 07:01 0.21199 101.43309 3211 ft 251 kts 331°
2026-05-06 07:01 0.22838 101.42877 3088 ft 241 kts
2026-05-06 07:01 0.24453 101.43134 2968 ft 230 kts 12°
2026-05-06 07:01 0.25990 101.43457 2850 ft 221 kts 12°
2026-05-06 07:02 0.27465 101.43759 2744 ft 212 kts 10°
2026-05-06 07:02 0.28904 101.43930 2634 ft 206 kts
2026-05-06 07:02 0.30328 101.43999 2448 ft 203 kts
2026-05-06 07:02 0.31712 101.44042 2304 ft 191 kts
2026-05-06 07:03 0.32958 101.44077 2230 ft 170 kts
2026-05-06 07:03 0.34100 101.44110 2071 ft 160 kts
2026-05-06 07:03 0.35172 101.44140 1897 ft 151 kts
2026-05-06 07:03 0.36214 101.44170 1713 ft 149 kts
2026-05-06 07:04 0.37246 101.44199 1528 ft 148 kts
2026-05-06 07:04 0.37942 101.44219 1398 ft 148 kts
2026-05-06 07:04 0.39301 101.44258 1147 ft 147 kts
2026-05-06 07:04 0.39989 101.44277 1025 ft 146 kts
2026-05-06 07:05 0.41006 101.44307 861 ft 146 kts
2026-05-06 07:05 0.42019 101.44335 686 ft 145 kts
2026-05-06 07:05 0.43027 101.44364 502 ft 145 kts
2026-05-06 07:05 0.44028 101.44393 298 ft 144 kts
2026-05-06 07:06 0.45022 101.44420 133 ft 141 kts 360°
2026-05-06 07:06 0.45963 101.44431 315 ft 142 kts
2026-05-06 07:06 0.46980 101.44475 923 ft 148 kts
2026-05-06 07:06 0.48017 101.44470 1601 ft 151 kts 359°
2026-05-06 07:07 0.49139 101.44442 2174 ft 173 kts
2026-05-06 07:07 0.50306 101.44937 2727 ft 197 kts 43°
2026-05-06 07:07 0.51064 101.46182 2974 ft 221 kts 77°
2026-05-06 07:07 0.51242 101.47701 3006 ft 221 kts 88°
2026-05-06 07:08 0.51288 101.49232 3006 ft 220 kts 89°
2026-05-06 07:08 0.51315 101.50763 3006 ft 220 kts 90°
2026-05-06 07:08 0.51338 101.52314 3006 ft 220 kts 90°
2026-05-06 07:08 0.51363 101.53844 3001 ft 221 kts 90°
2026-05-06 07:09 0.51391 101.55378 2996 ft 220 kts 90°
2026-05-06 07:09 0.51417 101.56905 3003 ft 220 kts 90°
2026-05-06 07:09 0.51439 101.58435 3004 ft 220 kts 90°
2026-05-06 07:09 0.51457 101.59960 3003 ft 220 kts 92°
2026-05-06 07:10 0.51065 101.61408 3000 ft 217 kts 125°
2026-05-06 07:10 0.49932 101.62364 3002 ft 216 kts 160°
2026-05-06 07:10 0.48460 101.62624 3006 ft 217 kts 177°
2026-05-06 07:10 0.46947 101.62662 3004 ft 217 kts 182°
2026-05-06 07:11 0.45475 101.62377 3006 ft 217 kts 197°
2026-05-06 07:11 0.44042 101.61891 3004 ft 217 kts 199°
2026-05-06 07:11 0.42621 101.61379 3003 ft 217 kts 200°
2026-05-06 07:11 0.41199 101.60863 3004 ft 217 kts 200°
2026-05-06 07:12 0.39778 101.60346 3004 ft 218 kts 200°
2026-05-06 07:12 0.38353 101.59827 3003 ft 218 kts 200°
2026-05-06 07:12 0.36930 101.59309 3003 ft 218 kts 200°
2026-05-06 07:12 0.35509 101.58789 3002 ft 217 kts 200°
2026-05-06 07:13 0.34087 101.58270 3003 ft 218 kts 200°
2026-05-06 07:13 0.32667 101.57750 3002 ft 217 kts 200°
2026-05-06 07:13 0.31251 101.57230 3002 ft 217 kts 200°
2026-05-06 07:13 0.29832 101.56710 3000 ft 217 kts 200°
2026-05-06 07:14 0.28412 101.56191 3000 ft 217 kts 200°
2026-05-06 07:14 0.27065 101.55509 2715 ft 219 kts 223°
2026-05-06 07:14 0.26275 101.54225 2382 ft 221 kts 257°
2026-05-06 07:14 0.26120 101.52696 2065 ft 222 kts 268°
2026-05-06 07:15 0.26108 101.51149 1997 ft 219 kts 270°
2026-05-06 07:15 0.26119 101.49653 1999 ft 219 kts 273°
2026-05-06 07:15 0.26602 101.48217 1994 ft 216 kts 307°
2026-05-06 07:15 0.27613 101.47167 2000 ft 206 kts 318°
2026-05-06 07:16 0.28683 101.46235 2001 ft 202 kts 320°
2026-05-06 07:16 0.29685 101.45385 2008 ft 176 kts 320°
2026-05-06 07:16 0.30573 101.44634 2007 ft 162 kts 321°
2026-05-06 07:16 0.31546 101.44128 1998 ft 157 kts 347°
2026-05-06 07:17 0.32618 101.44067 2025 ft 151 kts
2026-05-06 07:17 0.33664 101.44097 2011 ft 149 kts
2026-05-06 07:17 0.34699 101.44127 1933 ft 148 kts
2026-05-06 07:17 0.35727 101.44156 1785 ft 148 kts
2026-05-06 07:18 0.36751 101.44185 1611 ft 146 kts
2026-05-06 07:18 0.37768 101.44214 1430 ft 147 kts
2026-05-06 07:18 0.38785 101.44243 1245 ft 146 kts
2026-05-06 07:18 0.39799 101.44272 1060 ft 146 kts
2026-05-06 07:19 0.40812 101.44301 897 ft 146 kts
2026-05-06 07:19 0.41822 101.44330 721 ft 145 kts
2026-05-06 07:19 0.42832 101.44359 539 ft 145 kts
2026-05-06 07:19 0.43839 101.44387 351 ft 145 kts
2026-05-06 07:20 0.44848 101.44417 164 ft 146 kts
2026-05-06 07:20 0.45763 101.44433 126 ft 115 kts
2026-05-06 07:20 0.46342 101.44460 129 ft 37 kts
2026-05-06 07:20 0.46576 101.44466 129 ft 27 kts
2026-05-06 07:21 0.46634 101.44510 128 ft 1 kts 93°
2026-05-06 07:21 0.46633 101.44527 129 ft 4 kts 93°
2026-05-06 07:21 0.46630 101.44571 128 ft 9 kts 94°
2026-05-06 07:21 0.46579 101.44598 125 ft 11 kts 187°
2026-05-06 07:22 0.46506 101.44594 126 ft 10 kts 180°
2026-05-06 07:22 0.46481 101.44652 125 ft 8 kts 91°
2026-05-06 07:22 0.46480 101.44685 127 ft 0 kts 91°